sat.trackr.live / text

‹ back to catalog

UNKNOWN

NORAD 81535

UNKNOWN UNKNOWN UNKNOWN

§ Identity

Operator
Country
Launch date
Launch site
Launch vehicle
Mass (kg)
RCS (m²)

External: N2YO · Heavens-Above

§ Orbital elements

Epoch: 2026-09-18T10:03:55.324512Z

Period
101.84 min
Inclination
98.1766°
Eccentricity
0.0234731
Mean motion
14.13977614 rev/d
Perigee alt
676.2 km
Apogee alt
1,015.4 km
Semi-major
7,223.9 km
B*
2.0403e-4
RAAN
325.4969°
Arg perigee
58.8612°
Mean anomaly
303.5356°
Rev number
42,691

§ Raw data

UNKNOWN1 81535U          26261.41939033  .00000465  00000+0  20403-3 0  99972 81535  98.1766 325.4969 0234731  58.8612 303.5356 14.13977614426919

JSON: /api/v1/satellites/81535 · /tle

For live sub-satellite position, see the globe view (requires WebGL).

§ Visibility from observer

Set your observer location to see the next 7 days of passes ≥ 10°. The values pass through the URL so the page stays shareable.

No JS? Fill the form by hand. The geolocation button needs JavaScript.